Weather History for Evanston, WY

Change the Weather History Date:

Thursday, February 28, 2013

  Actual Average Record
Temperature  
Mean Temperature 21 °F 26 °F  
Max Temperature 32 °F 34 °F 44 °F (1999)
Min Temperature 9 °F 17 °F 0 °F (2007)
Degree Days  
Heating Degree Days 44 39  
Month to date heating degree days 1240 1177  
Since 1 July heating degree days 5595 6008  
Cooling Degree Days 0 0  
Month to date cooling degree days 0 0  
Year to date cooling degree days 0 0  
Moisture  
Dew Point 10 °F    
Average Humidity 58    
Maximum Humidity 73    
Minimum Humidity 42    
Precipitation  
Precipitation 0.00 in 0.02 in 0.21 in (2006)
Month to date precipitation 0.36 0.61  
Year to date precipitation 0.47 1.15  
Sea Level Pressure  
Sea Level Pressure 30.49 in    
Wind  
Wind Speed 11 mph (SW)    
Max Wind Speed 20 mph    
Max Gust Speed -    
Visibility 10 miles    
Events      
T = Trace of Precipitation, MM = Missing Value Source: NWS Daily Summary

Daily Weather History Graph

Daily Weather History Graph

Search for Another Location

Airport:

Trip Planner

Search our weather history database for the weather conditions in past years. The results will help you decide how hot, cold, wet, or windy it might be!

Date:

Astronomy

Feb. 28, 2013 Rise Set
Actual Time 6:59 AM MST 6:14 PM MST
Civil Twilight 6:31 AM MST 6:41 PM MST
Nautical Twilight 5:59 AM MST 7:13 PM MST
Astronomical Twilight 5:27 AM MST 7:45 PM MST
Moon 9:48 PM MST (2/28) 8:08 AM MST (2/28)
Length of Visible Light 12h 10m
Length of Day
11h 14m
Waning Gibbous, 90% of the Moon is Illuminated
Feb 28
Waning Gibbous
Mar 4
Last Quarter
Mar 11
New
Mar 19
First Quarter
Mar 27
Full

Hourly Weather History & Observations

Time (MST) Temp. Windchill Dew Point Humidity Pressure Visibility Wind Dir Wind Speed Gust Speed Precip Events Conditions
12:53 AM 12.0 °F 2.7 °F 5.0 °F 73% 30.48 in 10.0 mi SSW 5.8 mph - N/A   Scattered Clouds
1:53 AM 10.9 °F -1.8 °F 5.0 °F 77% 30.48 in 10.0 mi SSW 9.2 mph - N/A   Clear
2:53 AM 10.9 °F 0.2 °F 3.9 °F 73% 30.46 in 10.0 mi SSW 6.9 mph - N/A   Clear
3:53 AM 10.9 °F 0.2 °F 3.0 °F 70% 30.45 in 10.0 mi South 6.9 mph - N/A   Clear
4:53 AM 10.0 °F -1.9 °F 1.9 °F 70% 30.46 in 10.0 mi SSW 8.1 mph - N/A   Partly Cloudy
5:53 AM 9.0 °F -5.1 °F 3.0 °F 77% 30.49 in 10.0 mi SW 10.4 mph - N/A   Scattered Clouds
6:53 AM 12.0 °F 2.7 °F 3.9 °F 70% 30.52 in 10.0 mi SSW 5.8 mph - N/A   Overcast
7:53 AM 12.9 °F 0.7 °F 5.0 °F 71% 30.52 in 10.0 mi SSW 9.2 mph - N/A   Clear
8:53 AM 16.0 °F 2.9 °F 6.1 °F 65% 30.53 in 10.0 mi SW 11.5 mph - N/A   Partly Cloudy
9:53 AM 19.0 °F 8.2 °F 7.0 °F 59% 30.52 in 10.0 mi SW 9.2 mph - N/A   Overcast
10:53 AM 24.1 °F 13.7 °F 9.0 °F 53% 30.51 in 10.0 mi SW 10.4 mph - N/A   Scattered Clouds
11:53 AM 28.9 °F 16.5 °F 8.1 °F 41% 30.47 in 10.0 mi SW 18.4 mph - N/A   Clear
12:53 PM 28.9 °F 15.8 °F 12.9 °F 51% 30.48 in 10.0 mi WSW 20.7 mph - N/A   Overcast
1:53 PM 28.9 °F 17.7 °F 12.9 °F 51% 30.48 in 10.0 mi SW 15.0 mph - N/A   Overcast
2:53 PM 30.0 °F 19.1 °F 14.0 °F 51% 30.46 in 10.0 mi SW 15.0 mph - N/A   Mostly Cloudy
3:53 PM 32.0 °F 20.5 °F 16.0 °F 52% 30.48 in 10.0 mi West 18.4 mph - N/A   Partly Cloudy
4:53 PM 30.0 °F 18.3 °F 14.0 °F 51% 30.48 in 10.0 mi West 17.3 mph - N/A   Clear
5:53 PM 27.0 °F 14.3 °F 14.0 °F 58% 30.52 in 10.0 mi WSW 17.3 mph - N/A   Partly Cloudy
6:53 PM 28.0 °F 17.5 °F 16.0 °F 61% 30.51 in 10.0 mi WSW 12.7 mph - N/A   Overcast
7:53 PM 28.0 °F 19.3 °F 16.0 °F 61% 30.53 in 10.0 mi SW 9.2 mph - N/A   Overcast
8:53 PM 28.0 °F 18.6 °F 16.0 °F 61% 30.53 in 10.0 mi WSW 10.4 mph - N/A   Overcast
9:53 PM 28.0 °F 18.6 °F 16.0 °F 61% 30.51 in 10.0 mi WSW 10.4 mph - N/A   Overcast
10:26 PM 28.4 °F 17.5 °F 15.8 °F 59% 30.40 in 10.0 mi WSW 13.8 mph - N/A   Overcast
10:53 PM 28.0 °F 17.0 °F 17.1 °F 63% 30.49 in 10.0 mi WSW 13.8 mph - N/A   Overcast
11:53 PM 28.0 °F 15.7 °F 18.0 °F 66% 30.45 in 10.0 mi WSW 17.3 mph - N/A   Overcast